sat.trackr.live / text

‹ back to catalog

STARLINK-36128

NORAD 66873 · 2025-281AB

PAYLOAD ACTIVE UNKNOWN

§ Identity

Operator
Country
US
Launch date
2025-12-02
Launch site
AFETR
Launch vehicle
Mass (kg)
RCS (m²)

Purposes: comms

External: N2YO · Heavens-Above · Gunter

§ Orbital elements

Epoch: 2026-05-25T01:02:18.737952Z

Period
94.27 min
Inclination
42.9986°
Eccentricity
0.0000920
Mean motion
15.27578236 rev/d
Perigee alt
482.4 km
Apogee alt
483.7 km
Semi-major
6,861.2 km
B*
5.6941e-4
RAAN
272.1935°
Arg perigee
293.8116°
Mean anomaly
66.2639°
Rev number
2,780

§ Raw data

STARLINK-361281 66873U 25281AB  26145.04327243  .00015439  00000+0  56941-3 0  99902 66873  42.9986 272.1935 0000920 293.8116  66.2639 15.27578236 27805

JSON: /api/v1/satellites/66873 · /tle

For live sub-satellite position, see the globe view (requires WebGL).

§ Visibility from observer

Set your observer location to see the next 7 days of passes ≥ 10°. The values pass through the URL so the page stays shareable.

No JS? Fill the form by hand. The geolocation button needs JavaScript.